Brocton, IL

8:46 AM CST on February 06, 2016 (GMT -0600)
Edgar County

Weather History for KPRG - May, 2013

Change the Weather History Date:

Friday, May 24, 2013

  Actual Average (KHUF) Record (KHUF)
Temperature  
Mean Temperature 52 °F 66 °F  
Max Temperature 68 °F 77 °F 91 °F (1975)
Min Temperature 37 °F 55 °F 36 °F (1956)
Degree Days  
Heating Degree Days 12 3  
Month to date heating degree days 120  
Since 1 July heating degree days 5340  
Cooling Degree Days 0 3  
Month to date cooling degree days 45  
Year to date cooling degree days 60  
Growing Degree Days 2 (Base 50)    
Moisture  
Dew Point 36 °F    
Average Humidity 57    
Maximum Humidity 88    
Minimum Humidity 26    
Precipitation  
Precipitation 0.00 in 0.21 in 2.12 in (1968)
Month to date precipitation 5.51  
Year to date precipitation 17.32  
Sea Level Pressure  
Sea Level Pressure 30.33 in    
Wind  
Wind Speed 6 mph (NNE)    
Max Wind Speed 12 mph    
Max Gust Speed 16 mph    
Visibility 10 miles    
Events      
T = Trace of Precipitation, MM = Missing Value Source: NWS Daily Summary

Daily Weather History Graph

Daily Weather History Graph

Search for Another Location

Airport or City:

Trip Planner

Search our weather history database for the weather conditions in past years. The results will help you decide how hot, cold, wet, or windy it might be!

Date:

Astronomy

May. 24, 2013 Rise Set
Actual Time 5:28 AM CDT 8:06 PM CDT
Civil Twilight 4:57 AM CDT 8:38 PM CDT
Nautical Twilight 4:18 AM CDT 9:17 PM CDT
Astronomical Twilight 3:34 AM CDT 10:01 PM CDT
Moon 7:48 PM CDT (5/24) 5:00 AM CDT (5/24)
Length of Visible Light 15h 40m
Length of Day
14h 37m
Full, 100% of the Moon is Illuminated
May 24
Full
May 24
Full
May 31
Last Quarter
Jun 8
New
Jun 16
First Quarter

Hourly Weather History & Observations

Time (CDT) Temp. Windchill Dew Point Humidity Pressure Visibility Wind Dir Wind Speed Gust Speed Precip Events Conditions
12:15 AM 44.6 °F 40.2 °F 35.6 °F 71% 30.25 in 10.0 mi North 8.1 mph - N/A   Clear
12:35 AM 44.1 °F 40.1 °F 34.9 °F 70% 30.26 in 10.0 mi North 6.9 mph - N/A   Clear
12:55 AM 43.5 °F 40.9 °F 34.3 °F 70% 30.26 in 10.0 mi North 4.6 mph - N/A   Clear
1:15 AM 42.4 °F 38.8 °F 34.0 °F 72% 30.27 in 10.0 mi North 5.8 mph - N/A   Clear
1:35 AM 42.3 °F 38.6 °F 33.8 °F 72% 30.27 in 10.0 mi North 5.8 mph - N/A   Clear
1:55 AM 41.9 °F 37.5 °F 33.4 °F 72% 30.27 in 10.0 mi North 6.9 mph - N/A   Clear
2:15 AM 41.2 °F 38.2 °F 33.3 °F 73% 30.27 in 10.0 mi North 4.6 mph - N/A   Clear
2:35 AM 41.0 °F 37.1 °F 33.3 °F 74% 30.28 in 10.0 mi North 5.8 mph - N/A   Clear
2:55 AM 40.5 °F 37.3 °F 33.3 °F 75% 30.28 in 10.0 mi NNW 4.6 mph - N/A   Clear
3:15 AM 39.6 °F 35.4 °F 33.4 °F 79% 30.29 in 10.0 mi NNW 5.8 mph - N/A   Clear
3:35 AM 38.8 °F 34.6 °F 33.8 °F 82% 30.29 in 10.0 mi NNW 5.8 mph - N/A   Clear
3:55 AM 38.3 °F 35.9 °F 34.2 °F 85% 30.30 in 10.0 mi NW 3.5 mph - N/A   Clear
4:15 AM 37.8 °F 35.3 °F 34.2 °F 87% 30.30 in 10.0 mi NNW 3.5 mph - N/A   Clear
4:35 AM 37.9 °F 34.4 °F 34.5 °F 87% 30.30 in 10.0 mi NNW 4.6 mph - N/A   Clear
4:55 AM 37.8 °F 34.2 °F 34.2 °F 87% 30.30 in 10.0 mi NNW 4.6 mph - N/A   Clear
5:15 AM 37.8 °F 34.2 °F 34.3 °F 87% 30.31 in 10.0 mi North 4.6 mph - N/A   Clear
5:35 AM 37.9 °F 35.5 °F 34.7 °F 88% 30.32 in 10.0 mi North 3.5 mph - N/A   Clear
5:55 AM 38.5 °F 34.1 °F 35.2 °F 88% 30.33 in 10.0 mi North 5.8 mph - N/A   Clear
6:15 AM 39.4 °F 34.5 °F 36.0 °F 88% 30.32 in 10.0 mi North 6.9 mph - N/A   Clear
6:35 AM 40.6 °F 36.0 °F 36.7 °F 86% 30.33 in 10.0 mi NNE 6.9 mph - N/A   Clear
6:55 AM 42.1 °F 37.1 °F 37.6 °F 84% 30.35 in 10.0 mi North 8.1 mph - N/A   Clear
7:15 AM 43.5 °F 38.9 °F 38.5 °F 82% 30.35 in 10.0 mi NNE 8.1 mph - N/A   Clear
7:35 AM 45.1 °F 39.9 °F 39.2 °F 80% 30.36 in 10.0 mi NNE 10.4 mph - N/A   Clear
7:55 AM 46.8 °F - 39.4 °F 75% 30.37 in 10.0 mi North 6.9 mph - N/A   Clear
8:15 AM 48.2 °F - 39.7 °F 73% 30.38 in 10.0 mi North 9.2 mph - N/A   Clear
8:35 AM 49.3 °F - 40.1 °F 71% 30.39 in 10.0 mi North 6.9 mph - N/A   Clear
8:55 AM 50.5 °F - 40.3 °F 68% 30.40 in 10.0 mi North 8.1 mph - N/A   Clear
9:15 AM 51.8 °F - 40.3 °F 65% 30.40 in 10.0 mi NNE 8.1 mph - N/A   Clear
9:35 AM 52.9 °F - 40.5 °F 63% 30.40 in 10.0 mi North 9.2 mph - N/A   Clear
9:55 AM 54.1 °F - 39.7 °F 58% 30.39 in 10.0 mi NNE 9.2 mph - N/A   Clear
10:15 AM 54.7 °F - 38.5 °F 54% 30.40 in 10.0 mi North 9.2 mph - N/A   Clear
11:38 AM - - - N/A% 30.39 in - NNE 9.2 mph - N/A   Unknown
11:55 AM 60.8 °F - 37.0 °F 41% 30.38 in 10.0 mi North 8.1 mph - N/A   Unknown
12:15 PM 61.5 °F - 36.1 °F 39% 30.38 in 10.0 mi NNW 6.9 mph 16.1 mph N/A   Clear
12:35 PM 61.9 °F - 34.9 °F 36% 30.37 in 10.0 mi NE 10.4 mph - N/A   Clear
12:55 PM 63.3 °F - 36.1 °F 36% 30.37 in 10.0 mi NNE 11.5 mph - N/A   Clear
1:15 PM 63.3 °F - 34.9 °F 35% 30.38 in 10.0 mi North 5.8 mph - N/A   Clear
1:35 PM 64.4 °F - 36.1 °F 35% 30.37 in 10.0 mi NE 8.1 mph - N/A   Clear
1:55 PM 64.6 °F - 36.7 °F 36% 30.36 in 10.0 mi NE 10.4 mph - N/A   Clear
2:15 PM 66.0 °F - 35.4 °F 32% 30.36 in 10.0 mi NE 6.9 mph - N/A   Clear
2:35 PM 66.2 °F - 36.0 °F 33% 30.36 in 10.0 mi NE 8.1 mph - N/A   Clear
2:55 PM 65.8 °F - 35.4 °F 32% 30.36 in 10.0 mi Calm Calm - N/A   Clear
3:15 PM 67.3 °F - 35.2 °F 31% 30.35 in 10.0 mi Calm Calm - N/A   Clear
3:35 PM 67.3 °F - 34.0 °F 29% 30.34 in 10.0 mi NNE 6.9 mph - N/A   Clear
3:55 PM 68.0 °F - 34.5 °F 29% 30.33 in 7.0 mi NE 3.5 mph - N/A   Clear
4:15 PM 67.3 °F - 34.2 °F 29% 30.32 in 10.0 mi ENE 5.8 mph - N/A   Clear
4:35 PM 68.0 °F - 33.6 °F 28% 30.32 in 10.0 mi NE 6.9 mph - N/A   Clear
4:55 PM 68.0 °F - 32.9 °F 27% 30.32 in 10.0 mi ENE 3.5 mph - N/A   Clear
5:15 PM 67.8 °F - 32.0 °F 26% 30.31 in 10.0 mi NNE 3.5 mph - N/A   Clear
5:35 PM 68.2 °F - 33.8 °F 28% 30.30 in 10.0 mi ESE 4.6 mph - N/A   Clear
5:55 PM 68.0 °F - 34.2 °F 29% 30.29 in 10.0 mi North 5.8 mph - N/A   Clear
6:15 PM 67.3 °F - 34.0 °F 29% 30.29 in 10.0 mi ENE 5.8 mph - N/A   Clear
6:35 PM 66.9 °F - 33.3 °F 29% 30.29 in 10.0 mi East 5.8 mph - N/A   Clear
6:55 PM 66.4 °F - 32.4 °F 28% 30.29 in 10.0 mi ENE 3.5 mph - N/A   Clear
7:15 PM 65.8 °F - 32.9 °F 29% 30.30 in 10.0 mi Calm Calm - N/A   Clear
7:35 PM 64.9 °F - 35.2 °F 33% 30.29 in 10.0 mi Calm Calm - N/A   Clear
7:55 PM 61.3 °F - 37.4 °F 41% 30.30 in 10.0 mi Calm Calm - N/A   Clear
8:15 PM 59.0 °F - 38.5 °F 47% 30.29 in 10.0 mi Calm Calm - N/A   Clear
8:35 PM 58.1 °F - 37.9 °F 47% 30.30 in 10.0 mi Calm Calm - N/A   Clear
8:55 PM 55.8 °F - 40.5 °F 56% 30.30 in 10.0 mi NE 3.5 mph - N/A   Clear
9:15 PM 54.7 °F - 38.8 °F 55% 30.31 in 10.0 mi Calm Calm - N/A   Clear
9:35 PM 54.1 °F - 40.6 °F 60% 30.32 in 10.0 mi Calm Calm - N/A   Clear
9:55 PM 53.1 °F - 43.7 °F 71% 30.32 in 10.0 mi Calm Calm - N/A   Clear
10:15 PM 52.3 °F - 41.9 °F 68% 30.33 in 10.0 mi Calm Calm - N/A   Clear
10:35 PM 51.4 °F - 41.2 °F 68% 30.33 in 10.0 mi Calm Calm - N/A   Clear
10:55 PM 51.1 °F - 39.7 °F 65% 30.34 in 10.0 mi NNE 3.5 mph - N/A   Clear
11:15 PM 51.1 °F - 39.9 °F 66% 30.33 in 10.0 mi NE 5.8 mph - N/A   Clear
11:35 PM 52.9 °F - 38.5 °F 58% 30.34 in 10.0 mi NE 5.8 mph - N/A   Clear
11:55 PM 52.7 °F - 38.3 °F 58% 30.35 in 10.0 mi NNE 4.6 mph - N/A   Clear